Flag for Netherlands Weather past 2 weeks in Groningen, Netherlands

Now
54 °F

Passing clouds.


Feels Like: 48 °F
Forecast: 44 / 53 °F
Wind: 23 mph from Southwest

Location: Groningen Eelde Airport

Current Time: Dec 18, 2014 at 5:53:00 PM

Latest Report: Dec 18, 2014 at 4:55 PM


Visibility: 2 mi

Pressure: 29.65 "Hg

Humidity: 94%

Dew point: 52 °F

Location of GroningenLocation

Historic Weather in Groningen — Graph

°F

Groningen temperature yesterday

Maximum temperature yesterday: 50 °F (at 3:55 PM)
Minimum temperature yesterday: 34 °F (at 12:25 AM)
Average temperature yesterday: 44 °F

Past Weeks' High & Low Weather Summary

 TemperatureHumidityPressure
High52 °F (Dec 18, 10:55 AM)100% (Dec 5, 10:55 PM)30.30 "Hg (Dec 5, 10:55 PM)
Low27 °F (Dec 9, 1:55 AM)66% (Dec 10, 1:25 PM)29.15 "Hg (Dec 12, 11:25 AM)
Average38 °F91%29.86 "Hg
* Reported Dec 3 4:25 PM — Dec 18 4:25 PM, Groningen, Weather by CustomWeather, © 2014

Note: Actual official high and low records may vary slightly from our data, if they occured in-between our weather recording intervals... More about our weather records

Advertising

Groningen weather history for previous 24 hours

 ConditionsComfort  
Time TempWeatherWind HumidityBarometerVisibility
4:25 PM
Dec 18
52 °FDrizzle. Overcast.23 mph100%29.62 "Hg2 mi
3:25 PM52 °FDrizzle. More clouds than sun.23 mph94%29.65 "Hg4 mi
2:55 PM52 °FDrizzle. Mostly cloudy.20 mph100%29.65 "Hg2 mi
2:25 PM52 °FFog.20 mph100%29.65 "Hg2 mi
1:55 PM52 °FFog.17 mph100%29.65 "Hg2 mi
1:25 PM52 °FFog.16 mph100%29.68 "Hg1 mi
12:55 PM52 °FFog.17 mph100%29.68 "Hg3 mi
12:25 PM52 °FFog.16 mph100%29.68 "Hg3 mi
11:25 AM52 °FFog.14 mph94%29.71 "Hg3 mi
10:55 AM52 °FFog.13 mph94%29.68 "Hg3 mi
10:25 AM50 °FFog.13 mph100%29.71 "Hg3 mi
9:55 AM50 °FFog.13 mph100%29.71 "Hg2 mi
9:25 AM50 °FFog.13 mph100%29.71 "Hg3 mi
8:55 AM50 °FLight rain. Mostly cloudy.12 mph100%29.71 "Hg1 mi
8:25 AM50 °FFog.14 mph100%29.68 "Hg1 mi
7:55 AM50 °FFog.14 mph100%29.68 "Hg1 mi
7:25 AM50 °FFog.14 mph100%29.68 "Hg1 mi
6:55 AM50 °FFog.14 mph100%29.68 "Hg1 mi
6:25 AM50 °FFog.15 mph94%29.68 "Hg2 mi
5:55 AM50 °FFog.13 mph94%29.68 "Hg2 mi
5:25 AM50 °FFog.12 mph94%29.68 "Hg2 mi
4:25 AM50 °FFog.13 mph94%29.71 "Hg3 mi
3:55 AM50 °FFog.10 mph94%29.71 "Hg2 mi
3:25 AM50 °FFog.10 mph94%29.71 "Hg2 mi
2:55 AM50 °FFog.10 mph94%29.71 "Hg2 mi
2:25 AM48 °FFog.10 mph100%29.71 "Hg3 mi
1:55 AM48 °FLight rain. Mostly cloudy.10 mph100%29.71 "Hg3 mi
1:25 AM48 °FFog.9 mph100%29.71 "Hg3 mi
12:55 AM48 °FMostly cloudy.9 mph94%29.71 "Hg4 mi
12:25 AM46 °FMostly cloudy.9 mph100%29.71 "Hg4 mi
11:55 PM
Dec 17
46 °FMostly cloudy.9 mph100%29.71 "Hg4 mi
11:25 PM46 °FOvercast.9 mph100%29.71 "Hg4 mi
10:55 PM46 °FMostly cloudy.7 mph100%29.68 "Hg5 mi
10:25 PM48 °FPassing clouds.10 mph94%29.68 "HgN/A
9:55 PM48 °FPartly cloudy.9 mph94%29.68 "Hg6 mi
9:25 PM48 °FMostly cloudy.8 mph94%29.65 "Hg6 mi
8:55 PM48 °FMostly cloudy.9 mph94%29.65 "Hg6 mi
8:25 PM48 °FLow clouds.8 mph94%29.65 "HgN/A
7:55 PM46 °FOvercast.7 mph100%29.62 "HgN/A
7:25 PM46 °FMostly cloudy.8 mph100%29.62 "HgN/A
6:55 PM48 °FPartly cloudy.7 mph94%29.62 "HgN/A
6:25 PM48 °FPassing clouds.9 mph94%29.59 "HgN/A
5:55 PM48 °FMostly cloudy.8 mph94%29.59 "HgN/A
5:25 PM50 °FMostly cloudy.10 mph88%29.56 "HgN/A
Weather by CustomWeather, © 2014

See weather overviewHow to use our weather pages